Flag for Colombia Weather past 2 weeks in Bogota, Colombia

Now
61 °F

Scattered clouds.


Feels Like: 61 °F
Forecast: 48 / 61 °F
Wind: 2 mph from North

Location: Bogota / Eldorado

Current Time: Mar 30, 2015 at 9:42:18 AM

Latest Report: Mar 30, 2015 at 9:00 AM


Visibility: 4 mi

Pressure: 30.40 "Hg

Humidity: 72%

Dew point: 52 °F

Location of BogotaLocation

Historic Weather in Bogota — Graph

°F

Bogota temperature yesterday

Maximum temperature yesterday: 61 °F (at 10:00 AM)
Minimum temperature yesterday: 52 °F (at 12:00 AM)
Average temperature yesterday: 56 °F

Past Weeks' High & Low Weather Summary

 TemperatureHumidityPressure
High72 °F (Mar 15, 12:00 PM)100% (Mar 18, 5:00 AM)30.44 "Hg (Mar 18, 5:00 AM)
Low41 °F (Mar 22, 5:00 AM)36% (Mar 15, 12:00 PM)30.21 "Hg (Mar 15, 3:00 PM)
Average57 °F79%30.34 "Hg
* Reported Mar 15 8:00 AM — Mar 30 8:00 AM, Bogota, Weather by CustomWeather, © 2015

Note: Actual official high and low records may vary slightly from our data, if they occured in-between our weather recording intervals... More about our weather records

Advertising

Bogota weather history for previous 24 hours

 ConditionsComfort  
Time TempWeatherWind HumidityBarometerVisibility
8:00 AM
Mon, Mar 30
55 °FFog.3 mph94%30.39 "Hg3 mi
7:00 AM52 °FDense fog.3 mph94%30.36 "Hg0 mi
6:00 AM50 °FFog.3 mph94%30.35 "Hg2 mi
5:00 AM50 °FFog.2 mph94%30.35 "Hg1 mi
4:00 AM50 °FFog.2 mph94%30.34 "Hg2 mi
3:00 AM50 °FFog.2 mph100%30.35 "Hg2 mi
2:00 AM52 °FFog.2 mph94%30.35 "Hg3 mi
1:00 AM50 °FFog.2 mph100%30.38 "Hg2 mi
12:00 AM50 °FFog.5 mph100%30.40 "Hg2 mi
11:00 PM
Sun, Mar 29
52 °FFog.3 mph94%30.42 "Hg2 mi
10:00 PM52 °FFog.2 mph94%30.42 "Hg3 mi
9:00 PM54 °FFog.3 mph94%30.40 "Hg2 mi
8:00 PM54 °FPassing clouds.5 mph94%30.38 "Hg5 mi
7:00 PM55 °FPassing clouds.5 mph88%30.36 "Hg4 mi
6:00 PM55 °FPartly sunny.5 mph88%30.34 "Hg4 mi
5:00 PM57 °FLight rain. Partly sunny.7 mph88%30.33 "Hg5 mi
4:00 PM59 °FPartly sunny.12 mph82%30.32 "HgN/A
3:00 PM59 °FScattered showers. Partly sunny.8 mph88%30.33 "Hg5 mi
2:00 PM59 °FHeavy rain. Scattered clouds.8 mph82%30.35 "Hg5 mi
1:00 PM61 °FDrizzle. Partly sunny.6 mph72%30.38 "Hg5 mi
12:00 PM61 °FScattered showers. Partly sunny.5 mph68%30.40 "HgN/A
11:00 AM61 °FBroken clouds.3 mph68%30.42 "HgN/A
10:00 AM61 °FBroken clouds.3 mph68%30.43 "HgN/A
9:00 AM59 °FBroken clouds.2 mph77%30.43 "HgN/A
Weather by CustomWeather, © 2015

See weather overviewHow to use our weather pages